Regional Weather Roundup
Issued by NWS Sterling, VA

Home | Current Version | Previous Version | Text Only | Print | Product List | Glossary On
Versions: 1 2 3 4 5 6 7 8 9 10 11 12 13 14 15 16 17 18 19 20 21 22 23 24 25 26 27
000
ASUS41 KLWX 191810
RWRLWX

REGIONAL WEATHER ROUNDUP
NATIONAL WEATHER SERVICE BALTIMORE MD/WASHINGTON DC
100 PM EST SUN NOV 19 2017

Note: "FAIR" indicates few or no clouds below 12,000 feet
with no significant weather and/or obstructions to visibility.
 TC=TEMPERATURE CELSIUS

 * =Non NWS site. Station does not report precipitation (e.g. rain,
    snow, etc.), thunder, or fog.

DCZ001-MDZ009-015-VAZ040>042-051-053>054-191900-
WASHINGTON METRO

CITY           SKY/WX    TMP DP  RH WIND       PRES   REMARKS
WASHINGTON NAT PTSUNNY   51  29  42 W16G30    29.75S
DULLES         PTSUNNY   48  29  47 W18G30    29.77R
ANDREWS AFB    MOSUNNY   50  28  42 NW23G39   29.71S
FT BELVOIR     MOSUNNY   50  26  39 NW20G39   29.75R
COLLEGE PARK*  PTSUNNY   49  29  46 W15G23    29.73S
LEESBURG*      CLOUDY    50  32  50 W14G30    29.77S
MANASSAS*      MOSUNNY   49  28  44 NW17G25   29.77R
GAITHERSBURG*  CLOUDY    48  29  47 NW20G26   29.74R

$$

MDZ006>007-011-014-191900-
BALTIMORE METRO

CITY           SKY/WX    TMP DP  RH WIND       PRES   REMARKS
BWI AIRPORT    PTSUNNY   50  30  46 W21G32    29.71R
MARTIN STATE   MOSUNNY   54  34  47 W23G35    29.70S
FORT MEADE*    PTSUNNY   50  32  50 W16G25    29.73F

$$

MDZ012-015-019>023-191900-
MARYLAND EASTERN SHORE

CITY           SKY/WX    TMP DP  RH WIND       PRES   REMARKS
OCEAN CITY     SUNNY     55  35  47 NW22G35   29.64S
SALISBURY      SUNNY     53  34  48 W24G35    29.66S
CAMBRIDGE*     MOSUNNY   52  32  46 W18G30    29.69S
EASTON*        MOSUNNY   54  30  40 NW26G35   29.72S

$$

MDZ017>025-191900-
SOUTHERN MARYLAND

CITY           SKY/WX    TMP DP  RH WIND       PRES   REMARKS
PATUXENT RIVER NOT AVBL
ST INIGOES     NOT AVBL
LEONARDTOWN*   SUNNY     54  30  40 W14G29    29.71F

$$

MDZ003>005-191900-
NORTH CENTRAL MARYLAND

CITY           SKY/WX    TMP DP  RH WIND       PRES   REMARKS
FREDERICK*     CLOUDY    46  25  42 NW21G31   29.78R
HAGERSTOWN APT CLOUDY    45  29  53 W17G26    29.73R
WESTMINSTER*   PTSUNNY  N/A N/A N/A W18G33    29.69S

$$

MDZ501>502-191900-
WESTERN MARYLAND

CITY           SKY/WX    TMP DP  RH WIND       PRES   REMARKS
OAKLAND*       CLOUDY    30  28  93 W12G17    29.70S VSB 3/4 WCI  21
CUMBERLAND*    CLOUDY    43  28  56 W14G23    29.84S

$$

VAZ025>031-191900-
SHENANDOAH VALLEY

CITY           SKY/WX    TMP DP  RH WIND       PRES   REMARKS
WINCHESTER*    CLOUDY    43  30  61 NW25      29.77R
FRONT ROYAL*   CLOUDY    46  28  49 W13       29.77S
LURAY*         MOSUNNY   48  28  46 W13G25    29.78R
NEW MARKET*    PTSUNNY   45  24  44 NW10G20   29.79R
STAUNTON*      CLOUDY    45  27  49 NW12      29.80S
WAYNESBORO*    MOSUNNY   46  25  43 NW12G22   29.77S

$$

WVZ021-048>050-054>055-191900-
EASTERN WEST VIRGINIA PANHANDLE

CITY           SKY/WX    TMP DP  RH WIND       PRES   REMARKS
MARTINSBURG    CLOUDY    46  27  47 W16       29.75S
PETERSBURG*    CLOUDY    41  28  60 NW7       29.81F

$$

VAZ036>039-050-191900-
CENTRAL FOOTHILLS

CITY           SKY/WX    TMP DP  RH WIND       PRES   REMARKS
CHARLOTTESVILL SUNNY     54  28  36 NW10G20   29.77S
CULPEPER*      MOSUNNY   52  24  33 NW16G24   29.76S
ORANGE*        MOSUNNY   52  27  37 W12G28    29.76S
GORDONSVILLE*  MOSUNNY   53  26  35 W10G24    29.76F
WARRENTON*     NOT AVBL

$$

VAZ055>057-191900-
NORTH AND CENTRAL PIEDMONT

CITY           SKY/WX    TMP DP  RH WIND       PRES   REMARKS
FREDERICKSBRG* SUNNY     55  30  39 NW16G23   29.74R
STAFFORD*      SUNNY     53  26  34 NW13G25   29.79R

$$

NCZ024-NYZ072-PAZ021-071-VAZ022-071-191900-
OTHER REGIONAL OBSERVATIONS

CITY           SKY/WX    TMP DP  RH WIND       PRES   REMARKS
NEW YORK CITY  MOSUNNY   50  28  42 NW12G28   29.52R
PHILADELPHIA   PTSUNNY   53  30  41 W24G31    29.61R
PITTSBURGH     CLOUDY    39  28  64 W22G30    29.80F WCI  29
ROANOKE        PTSUNNY   46  29  51 NW14G25   29.87S
RICHMOND       MOSUNNY   61  27  27 NW21G26   29.73S
RALEIGH        MOSUNNY   57  29  34 NW12G18   29.81F

$$

ANZ530>537-191900-
MARINE OBSERVATIONS

STATION/POSITION TIME  TEMP    WIND        PRES
                       AIR SEA DIR/SP/G
                 (UTC) (F)     (DEG/KT/KT) (MB)
THOMAS PT LIGHT  1800   50 54  300/ 21/ 27   N/A
BALT KEY BRIDGE  1742   49     300/ 24/ 30 1005.1R
COVE POINT       1742   51     330/ 25/ 32 1006.2F
LEWISETTA        1742   54 53  340/ 19/ 29 1005.7F
SOLOMONS ISLAND  1742   53 55  320/ 13/ 22 1005.4F
PINEY POINT      1742          320/ 25/ 27   N/A

$$





USA.gov is the U.S. government's official web portal to all federal, state and local government web resources and services.